Showing default

YAOGAN-37, 55244

Orbit data source: Space-Track

YAOGAN-37, 55244 is a payload satellite owned by PLA GAD (CN) in LEO that was launched on Fri, 13 Jan 2023 UTC via a CHANG ZHENG 2D launch vehicle from the Jiuquan Satellite Launch Center, China (JSC). Payload-class satellites include a variety of spacecraft equipped with specific instruments for various scientific and technological missions. These include communications satellites like Starlink; space stations such as the ISS; scientific satellites like the Hubble; Earth observation satellites from companies like Planet Labs, Umbra, and HawkEye 360; GPS; miniature CubeSats for education and research; and military/defense satellites.

Loading next visibility...
Identifier
55244, 2023-006C
Orbit
LEO
Country
Flag of CNCN / PRC
Related business
Manufacturer
DFH
Mission
Operational Defense Imaging
Bus & Motor
Unknown
Mass
~1,000 kg wet, ~1,000 kg dry
Launch date (UTC)
2023-01-13 (3 years ago)
Launch vehicle
CHANG ZHENG 2D
Launch site
Jiuquan Satellite Launch Center, China (JSC)
Object type
Payload
Rocket body
Debris
Shape & HBR
Box + 2 Pan, 2.5 m
Radar Cross Section
11.063 m², Large (>1 m²)

Expand to show TLE details & history
Last TLE update: 23 hours ago

TLE from 23 hours ago
0 YAOGAN-37
1 55244U 23006C   26172.49477606  .00003798  00000-0  19898-3 0  9997
2 55244  43.1965  98.8095 0016001  35.6252 324.5664 15.17198415190530
Epoch: 2026-06-21T11:52Z
TLE epoch observation values (Epoch: 2026-06-21T11:52:28.651Z)
Latitude
-0.00002°
Longitude
10.99587°
Altitude
505.132 km
Speed
7.618 km/s
True Right ascension
06h 35m 14s
True Declination
0° 00' 00"
Sunlit
Object was in daylight at epoch
Visualization orbit readout
Latitude
Unknown
Longitude
Unknown
Altitude
Unknown
Speed
Unknown
Apparent Right ascension
Unknown
Apparent Declination
Unknown
Sunlit
N/A
Visualization observer readout
Local Sidereal Time
21:29:56
Azimuth
Unknown
Elevation
Unknown
Doppler factor
Unknown
Orbital elements
Apogee altitude
527.248 km
Perigee altitude
505.184 km
Semi-major axis
6,894.353 km
Eccentricity
0.0016
Inclination
43.1965°
RAAN
98.8095°
Arg. of periapsis
35.6252°
True anomaly
324.45992°
Mean anomaly
324.5664°
Eccentric anomaly
324.51318°
Mean motion
3.79143 °/min
Orbital period
94.95 mins
BSTAR
0.00019898
Loading maneuver chart data...
Computing Atmospheric mass density...
Loading historical data...
Loading historical data...
Loading historical data...
Loading historical data...
Loading historical data...
Loading historical data...
Loading historical data...

Documentation

Showing up to 5 results
|